Bucharest, Romania

3:25 AM EET on March 25, 2017 (GMT +0200)
Bucharest

Weather History for 15420 - May, 2010

Change the Weather History Date:

Saturday, May 22, 2010

  Actual Average Record
Temperature  
Mean Temperature 60 °F -  
Max Temperature 69 °F 78 °F - ()
Min Temperature 50 °F 55 °F - ()
Degree Days  
Heating Degree Days 6    
Growing Degree Days 10 (Base 50)    
Moisture  
Dew Point 57 °F    
Average Humidity 90    
Maximum Humidity 100    
Minimum Humidity 46    
Precipitation  
Precipitation 0.08 in 0.10 in - ()
Sea Level Pressure  
Sea Level Pressure 29.88 in    
Wind  
Wind Speed 3 mph ()    
Max Wind Speed 8 mph    
Max Gust Speed -    
Visibility 5.6 miles    
Events Rain , Thunderstorm    
T = Trace of Precipitation, MM = Missing Value Source: Averaged Metar Reports

Daily Weather History Graph

Daily Weather History Graph

Search for Another Location

Airport or City:

Trip Planner

Search our weather history database for the weather conditions in past years. The results will help you decide how hot, cold, wet, or windy it might be!

Date:

Astronomy

May. 22, 2010 Rise Set
Actual Time 5:41 AM EEST 8:43 PM EEST
Civil Twilight 5:06 AM EEST 9:18 PM EEST
Nautical Twilight 4:22 AM EEST 10:03 PM EEST
Astronomical Twilight 3:29 AM EEST 10:56 PM EEST
Moon 2:40 PM EEST (5/22) 2:18 AM EEST (5/22)
Length of Visible Light 16h 11m
Length of Day
15h 02m
Waxing Gibbous, 66% of the Moon is Illuminated
May 22
Waxing Gibbous
May 28
Full
Jun 5
Last Quarter
Jun 12
New
Jun 19
First Quarter

Hourly Weather History & Observations

Time (EEST) Temp. Dew Point Humidity Pressure Visibility Wind Dir Wind Speed Gust Speed Precip Events Conditions
12:00 AM 54 °F 54 °F 100% 29.94 in 6 mi Calm Calm - -   Mostly Cloudy
12:00 AM 57.2 °F 57.2 °F 100% 29.92 in - Calm Calm - N/A   Clear
12:30 AM 57.2 °F 57.2 °F 100% 29.92 in 6.2 mi Variable 1.2 mph - N/A Rain Light Rain
1:00 AM 54 °F 54 °F 100% 29.94 in 6 mi ENE 2.2 mph - - Rain Light Rain Showers
1:00 AM 57.2 °F 57.2 °F 100% 29.92 in 6.2 mi Variable 2.3 mph - N/A   Scattered Clouds
1:30 AM 57.2 °F 57.2 °F 100% 29.92 in 6.2 mi Calm Calm - N/A   Mostly Cloudy
2:00 AM 55 °F 55 °F 100% 29.93 in 6 mi SW 2.2 mph - - Rain Light Rain Showers
2:00 AM 57.2 °F 57.2 °F 100% 29.89 in 6.2 mi Variable 2.3 mph - N/A Rain Light Rain Showers
2:30 AM 57.2 °F 57.2 °F 100% 29.89 in 6.2 mi West 3.5 mph - N/A   Mostly Cloudy
3:00 AM 56 °F 56 °F 98% 29.91 in 6 mi WSW 2.2 mph - - Rain Light Rain Showers
4:00 AM 55 °F 55 °F 100% 29.90 in 6 mi North 2.2 mph - - Rain Light Rain Showers
4:00 AM 57.2 °F 57.2 °F 100% 29.86 in 6.2 mi NW 4.6 mph - N/A   Overcast
4:30 AM 57.2 °F 55.4 °F 94% 29.86 in 6.2 mi NW 3.5 mph - N/A   Mostly Cloudy
5:00 AM 54 °F 54 °F 100% 29.90 in 6 mi Calm Calm - - Rain Light Rain Showers
5:00 AM 57.2 °F 55.4 °F 94% 29.86 in 4.3 mi WNW 3.5 mph - N/A   Mostly Cloudy
5:30 AM 57.2 °F 55.4 °F 94% 29.86 in 3.1 mi Variable 2.3 mph - N/A   Mostly Cloudy
6:00 AM 55 °F 55 °F 99% 29.89 in 2 mi NW 4.5 mph - - Rain Light Rain Showers
6:00 AM 57.2 °F 55.4 °F 94% 29.86 in 3.1 mi NW 4.6 mph - N/A   Mostly Cloudy
6:30 AM 57.2 °F 55.4 °F 94% 29.86 in 2.5 mi NNW 3.5 mph - N/A Rain Light Rain Showers
7:00 AM 55 °F 55 °F 100% 29.90 in 2 mi NW 2.2 mph - - Rain Light Rain Showers
7:00 AM 57.2 °F 57.2 °F 100% 29.86 in 2.5 mi NNW 3.5 mph - N/A Rain Light Rain Showers
7:30 AM 57.2 °F 57.2 °F 100% 29.86 in 2.5 mi NW 6.9 mph - N/A Rain Light Rain Showers
8:00 AM 56 °F 56 °F 98% 29.90 in 6 mi WNW 4.5 mph - - Rain Light Rain Showers
8:00 AM 57.2 °F 57.2 °F 100% 29.86 in 5.0 mi WNW 5.8 mph - N/A   Mostly Cloudy
8:30 AM 57.2 °F 57.2 °F 100% 29.86 in 4.3 mi WNW 3.5 mph - N/A Rain Light Rain
9:00 AM 56 °F 56 °F 100% 29.90 in 6 mi WNW 2.2 mph - - Rain Light Rain Showers
9:00 AM 57.2 °F 57.2 °F 100% 29.89 in 5.0 mi Variable 2.3 mph - N/A Rain Light Rain Showers
9:30 AM 59.0 °F 57.2 °F 94% 29.89 in 5.0 mi West 4.6 mph - N/A   Mostly Cloudy
10:00 AM 58 °F 57 °F 97% 29.91 in 6 mi WSW 2.2 mph - - Rain Light Rain Showers
10:00 AM 59.0 °F 59.0 °F 100% 29.89 in 6.2 mi NW 5.8 mph - N/A   Mostly Cloudy
10:30 AM 60.8 °F 59.0 °F 94% 29.89 in 6.2 mi WNW 5.8 mph - N/A Rain Light Rain Showers
11:00 AM 59 °F 57 °F 91% 29.91 in 6 mi NW 4.5 mph - -   Partly Cloudy
11:00 AM 60.8 °F 60.8 °F 100% 29.89 in 6.2 mi NW 6.9 mph - N/A   Mostly Cloudy
11:30 AM 60.8 °F 59.0 °F 94% 29.89 in 4.3 mi WNW 6.9 mph - N/A Rain , Thunderstorm Light Thunderstorms and Rain
12:00 PM 60 °F 57 °F 87% 29.90 in 6 mi WNW 4.5 mph - - Rain Light Rain Showers
12:00 PM 62.6 °F 60.8 °F 94% 29.89 in 5.0 mi NW 6.9 mph - N/A Rain , Thunderstorm Light Thunderstorms and Rain
12:30 PM 62.6 °F 60.8 °F 94% 29.89 in 5.0 mi North 6.9 mph - N/A Rain , Thunderstorm Light Thunderstorms and Rain
1:00 PM 63 °F 55 °F 67% 29.90 in 6 mi NNW 4.5 mph - - Rain Light Rain Showers
1:00 PM 60.8 °F 59.0 °F 94% 29.89 in 6.2 mi North 8.1 mph - N/A Rain , Thunderstorm Light Thunderstorms and Rain
1:30 PM 60.8 °F 59.0 °F 94% 29.89 in 6.2 mi ENE 4.6 mph - N/A   Mostly Cloudy
2:00 PM 61 °F 55 °F 74% 29.91 in 6 mi NE 2.2 mph - -   Overcast
2:00 PM 62.6 °F 60.8 °F 94% 29.89 in 6.2 mi North 3.5 mph - N/A   Mostly Cloudy
2:30 PM 62.6 °F 59.0 °F 88% 29.86 in 6.2 mi NNE 3.5 mph - N/A   Mostly Cloudy
3:00 PM 62 °F 54 °F 66% 29.88 in 6 mi NNW 4.5 mph - -   Partly Cloudy
3:00 PM 62.6 °F 60.8 °F 94% 29.86 in 6.2 mi NNE 5.8 mph - N/A Rain Light Rain
3:30 PM 64.4 °F 60.8 °F 88% 29.86 in 6.2 mi ENE 5.8 mph - N/A   Mostly Cloudy
4:00 PM 64 °F 54 °F 63% 29.88 in 6 mi ENE 4.5 mph - - Rain Light Rain Showers
4:00 PM 64.4 °F 60.8 °F 88% 29.86 in 6.2 mi ENE 6.9 mph - N/A   Scattered Clouds
4:30 PM 66.2 °F 59.0 °F 78% 29.86 in 6.2 mi East 5.8 mph - N/A   Scattered Clouds
5:00 PM 67 °F 51 °F 46% 29.87 in 6 mi NNE 4.5 mph - -   Partly Cloudy
5:00 PM 68.0 °F 59.0 °F 73% 29.83 in 6.2 mi ENE 5.8 mph - N/A   Scattered Clouds
5:30 PM 68.0 °F 60.8 °F 78% 29.83 in 6.2 mi NE 8.1 mph - N/A   Scattered Clouds
6:00 PM 67 °F 51 °F 46% 29.87 in 6 mi NNE 4.5 mph - -   Partly Cloudy
6:00 PM 66.2 °F 59.0 °F 78% 29.86 in 6.2 mi NE 6.9 mph - N/A   Scattered Clouds
6:30 PM 64.4 °F 60.8 °F 88% 29.86 in 6.2 mi East 3.5 mph - N/A   Scattered Clouds
7:00 PM 64 °F 53 °F 60% 29.87 in 6 mi ENE 2.2 mph - -   Partly Cloudy
7:00 PM 66.2 °F 59.0 °F 78% 29.86 in 6.2 mi Variable 2.3 mph - N/A   Scattered Clouds
7:30 PM 66.2 °F 57.2 °F 73% 29.83 in 6.2 mi ENE 3.5 mph - N/A   Scattered Clouds
8:00 PM 63 °F 50 °F 53% 29.87 in 6 mi NNE 2.2 mph - -   Partly Cloudy
8:00 PM 62.6 °F 57.2 °F 82% 29.86 in 6.2 mi NE 3.5 mph - N/A   Partly Cloudy
8:30 PM 62.6 °F 59.0 °F 88% 29.86 in 6.2 mi NE 3.5 mph - N/A   Partly Cloudy
9:00 PM 57 °F 53 °F 83% 29.88 in 6 mi North 2.2 mph - -   Partly Cloudy
9:00 PM 60.8 °F 59.0 °F 94% 29.86 in 6.2 mi NE 4.6 mph - N/A   Partly Cloudy
9:30 PM 60.8 °F 57.2 °F 88% 29.86 in 6.2 mi NE 4.6 mph - N/A   Partly Cloudy
10:00 PM 54 °F 53 °F 97% 29.90 in 6 mi North 2.2 mph - -   Scattered Clouds
10:00 PM 59.0 °F 57.2 °F 94% 29.89 in - Variable 2.3 mph - N/A   Clear
10:30 PM 57.2 °F 55.4 °F 94% 29.89 in 6.2 mi East 5.8 mph - N/A   Partly Cloudy
11:00 PM 56 °F 54 °F 90% 29.91 in 6 mi ENE 4.5 mph - -   Scattered Clouds
11:00 PM 57.2 °F 55.4 °F 94% 29.89 in 6.2 mi ENE 4.6 mph - N/A   Partly Cloudy
11:30 PM 57.2 °F 57.2 °F 100% 29.89 in - ENE 8.1 mph - N/A   Clear